Regional Weather Roundup
Issued by NWS Cleveland, OH

Home | Current Version | Previous Version | Text Only | Print | Product List | Glossary Off
Versions: 1 2 3 4 5 6 7 8 9 10 11 12 13 14 15 16 17 18 19 20 21 22 23 24 25 26 27 28 29 30 31 32 33 34 35 36 37 38 39 40 41 42 43 44 45 46 47 48 49 50

000
ASUS41 KCLE 212310
RWRCLE
OHIO REGIONAL WEATHER ROUNDUP
NATIONAL WEATHER SERVICE CLEVELAND, OH
600 PM EST FRI NOV 21 2014

NOTE: "FAIR" INDICATES FEW OR NO CLOUDS BELOW 12,000 FEET WITH NO
SIGNIFICANT WEATHER AND/OR OBSTRUCTIONS TO VISIBILITY.

OHZ001>008-015>018-024>027-034-035-043-044-220000-
   NORTHWEST OHIO

CITY           SKY/WX    TMP DP  RH WIND       PRES   REMARKS
DEFIANCE       CLEAR     23  12  62 S5        30.45S WCI  17
FINDLAY        CLEAR     22  11  62 S6        30.44F WCI  14
TOLEDO EXPRESS CLEAR     22  12  65 S3        30.44F
TOLEDO EXEC    CLEAR     20  11  68 S6        30.46F WCI  12
LIMA           CLEAR     23  12  62 S5        30.44S WCI  17
$$

OHZ009>014-019>023-028>033-038-089-220000-
   NORTHEAST OHIO

CITY           SKY/WX    TMP DP  RH WIND       PRES   REMARKS
CLE-HOPKINS    CLEAR     21   9  59 S3        30.50F
CLE-LAKEFRONT  CLEAR     24  10  55 SW5       30.48F WCI  18
CUY CO. ARPT   PTCLDY    23  10  58 SW6       30.48S WCI  16
LORAIN-ELYRIA  CLEAR     20  10  65 SW5       30.47F WCI  13
ASHTABULA      PTCLDY    20   9  62 S5        30.47F WCI  13
AKRON-CANTON   CLEAR     20   7  57 S5        30.46S WCI  13
WOOSTER        CLEAR     20   8  60 S3        30.46F
MANSFIELD      CLEAR     19   9  65 S7        30.44F WCI  10
YOUNGSTOWN     CLEAR     20   9  62 S5        30.46S WCI  13
$$

OHZ042-051>053-060>062-070>072-077>081-220000-
  SOUTHWEST OHIO

CITY           SKY/WX    TMP DP  RH WIND       PRES   REMARKS
CINC-COVINGTON CLEAR     29  12  49 SE3       30.44S
CINC-LUNKEN    CLEAR     29  12  49 CALM      30.49R
HAMILTON       CLEAR     28  12  51 CALM      30.47S
DAYTON         CLEAR     25  13  60 SE9       30.45S WCI  15
WRIGHT-PAT AFB CLEAR     25  12  57 SE2       30.46F
DAYTON GENERAL CLEAR     26  10  50 SE6       30.44F WCI  19
WILMINGTON     CLEAR     22  12  65 CALM      30.45S
$$

OHZ036-037-039>041-045>050-054>059-063>069-073>076-082>088-220000-
  CENTRAL AND SOUTHEAST OHIO

CITY           SKY/WX    TMP DP  RH WIND       PRES   REMARKS
COLUMBUS       CLEAR     25   8  48 SE5       30.47F WCI  19
OSU AIRPORT    CLEAR     25  10  53 SE6       30.46F WCI  18
BOLTON FIELD   CLEAR     21  10  63 CALM      30.48F
RICKENBACK AFB CLEAR     23  10  58 E3        30.48S
NEWARK         CLEAR     21   9  59 CALM      30.48F
MARION         CLEAR     20  10  65 S6        30.46F WCI  12
LANCASTER      CLEAR     19  10  68 CALM      30.48F
ZANESVILLE     CLEAR     25   7  46 CALM      30.49S
NEW PHILLY     CLEAR     24  10  55 CALM      30.50S
$$


USA.gov is the U.S. government's official web portal to all federal, state and local government web resources and services.